QPF
0.03 0.03 0.02 0.02 0.01 0.01 0.00 0.00 0.00 0.00 0.00 0.00 0.01 0.01 0.01 0.01 0.01 0.01 0.01 0.01 0.01 0.01 0.01 0.01 0.01 0.04 0.05 0.05 0.05 0.04 0.03 0.05 0.09 0.11 0.10 0.09 0.07 0.06 0.05 0.04 0.06 0.06 0.04 0.04
0.03 0.04 0.02 0.01 0.01 0.02 0.01 0.01 0.00 0.00 0.00 0.00 0.01 0.01 0.01 0.01 0.01 0.01 0.02 0.01 0.01 0.01 0.01 0.01 0.01 0.02 0.04 0.05 0.07 0.06 0.04 0.04 0.06 0.09 0.08 0.09 0.08 0.06 0.04 0.04 0.05 0.08 0.07 0.05
0.03 0.02 0.01 0.01 0.01 0.02 0.01 0.01 0.01 0.01 0.01 0.01 0.01 0.01 0.01 0.01 0.01 0.01 0.01 0.01 0.01 0.01 0.01 0.01 0.01 0.02 0.03 0.03 0.06 0.07 0.05 0.04 0.05 0.07 0.08 0.08 0.09 0.08 0.06 0.04 0.04 0.06 0.09 0.08
0.03 0.01 0.01 0.01 0.01 0.01 0.01 0.00 0.01 0.01 0.01 0.01 0.00 0.01 0.00 0.00 0.00 0.01 0.01 0.01 0.01 0.01 0.01 0.01 0.01 0.02 0.02 0.02 0.04 0.06 0.04 0.05 0.05 0.05 0.08 0.09 0.07 0.07 0.07 0.06 0.04 0.04 0.06 0.09
0.05 0.02 0.01 0.01 0.01 0.01 0.01 0.00 0.01 0.01 0.01 0.01 0.00 0.01 0.00 0.00 0.00 0.00 0.01 0.01 0.01 0.01 0.01 0.01 0.01 0.02 0.02 0.03 0.03 0.06 0.04 0.04 0.05 0.05 0.07 0.09 0.09 0.07 0.07 0.06 0.06 0.04 0.04 0.06
0.05 0.03 0.02 0.02 0.01 0.01 0.01 0.01 0.02 0.02 0.03 0.03 0.01 0.01 0.00 0.00 0.00 0.00 0.00 0.01 0.01 0.01 0.01 0.01 0.01 0.01 0.02 0.02 0.03 0.04 0.04 0.04 0.05 0.06 0.07 0.09 0.09 0.08 0.07 0.07 0.06 0.06 0.04 0.04
0.04 0.04 0.04 0.04 0.03 0.02 0.04 0.05 0.07 0.07 0.05 0.02 0.00 0.00 0.00 0.00 0.00 0.00 0.01 0.01 0.01 0.01 0.01 0.01 0.01 0.01 0.01 0.02 0.02 0.03 0.04 0.04 0.05 0.06 0.07 0.08 0.08 0.08 0.08 0.06 0.06 0.07 0.07 0.05
0.03 0.03 0.03 0.03 0.04 0.04 0.04 0.04 0.04 0.03 0.02 0.01 0.00 0.00 0.00 0.00 0.00 0.00 0.00 0.01 0.01 0.01 0.01 0.01 0.01 0.02 0.02 0.02 0.02 0.03 0.03 0.04 0.05 0.07 0.08 0.07 0.07 0.07 0.07 0.06 0.05 0.06 0.06 0.05
0.02 0.01 0.01 0.01 0.02 0.03 0.04 0.03 0.02 0.02 0.01 0.01 0.00 0.00 0.00 0.00 0.00 0.00 0.00 0.00 0.01 0.01 0.01 0.01 0.01 0.01 0.02 0.02 0.02 0.02 0.03 0.03 0.03 0.04 0.08 0.09 0.08 0.06 0.05 0.05 0.05 0.04 0.05 0.06
0.02 0.02 0.01 0.01 0.02 0.03 0.03 0.03 0.03 0.04 0.03 0.01 0.00 0.00 0.01 0.01 0.00 0.00 0.00 0.00 0.01 0.01 0.01 0.01 0.01 0.01 0.01 0.02 0.02 0.02 0.02 0.02 0.02 0.02 0.03 0.05 0.07 0.08 0.07 0.06 0.05 0.05 0.05 0.05
0.03 0.03 0.02 0.02 0.03 0.03 0.03 0.05 0.05 0.04 0.03 0.02 0.01 0.02 0.02 0.01 0.01 0.01 0.01 0.01 0.01 0.01 0.01 0.01 0.01 0.01 0.01 0.01 0.01 0.01 0.01 0.01 0.01 0.01 0.02 0.02 0.03 0.05 0.06 0.07 0.07 0.07 0.06 0.06
0.03 0.03 0.02 0.02 0.02 0.01 0.02 0.02 0.03 0.04 0.03 0.02 0.02 0.03 0.03 0.02 0.02 0.01 0.01 0.01 0.01 0.01 0.01 0.01 0.01 0.01 0.01 0.01 0.01 0.01 0.01 0.01 0.01 0.01 0.01 0.01 0.02 0.02 0.04 0.05 0.05 0.06 0.07 0.07
0.04 0.04 0.03 0.03 0.03 0.01 0.01 0.01 0.01 0.02 0.02 0.02 0.02 0.02 0.02 0.02 0.02 0.02 0.01 0.01 0.01 0.01 0.01 0.01 0.01 0.01 0.01 0.01 0.01 0.01 0.01 0.01 0.01 0.01 0.01 0.01 0.01 0.01 0.02 0.04 0.04 0.05 0.06 0.06
0.04 0.04 0.02 0.02 0.01 0.01 0.01 0.01 0.01 0.02 0.03 0.02 0.02 0.02 0.01 0.01 0.01 0.01 0.01 0.01 0.01 0.01 0.01 0.01 0.01 0.01 0.01 0.01 0.01 0.01 0.01 0.01 0.01 0.01 0.01 0.01 0.01 0.01 0.02 0.03 0.04 0.04 0.05 0.05
0.04 0.03 0.01 0.00 0.00 0.01 0.01 0.01 0.00 0.01 0.01 0.02 0.01 0.01 0.01 0.01 0.01 0.01 0.01 0.01 0.01 0.01 0.01 0.01 0.01 0.01 0.01 0.01 0.00 0.01 0.01 0.01 0.01 0.01 0.02 0.02 0.01 0.01 0.01 0.02 0.03 0.04 0.05 0.05
0.04 0.03 0.01 0.01 0.00 0.00 0.01 0.00 0.01 0.01 0.01 0.01 0.01 0.01 0.01 0.01 0.01 0.01 0.01 0.01 0.01 0.01 0.01 0.01 0.01 0.00 0.01 0.01 0.01 0.01 0.01 0.01 0.02 0.01 0.02 0.02 0.02 0.01 0.01 0.02 0.02 0.03 0.05 0.05
0.03 0.03 0.02 0.01 0.00 0.01 0.01 0.01 0.01 0.01 0.01 0.01 0.01 0.01 0.01 0.01 0.01 0.02 0.01 0.01 0.01 0.01 0.01 0.01 0.01 0.01 0.01 0.01 0.01 0.01 0.01 0.01 0.02 0.02 0.02 0.03 0.03 0.02 0.02 0.02 0.02 0.02 0.03 0.04
0.02 0.02 0.03 0.02 0.01 0.01 0.01 0.00 0.00 0.01 0.01 0.01 0.01 0.01 0.01 0.01 0.01 0.02 0.02 0.02 0.01 0.01 0.01 0.01 0.01 0.01 0.01 0.01 0.01 0.01 0.01 0.01 0.01 0.02 0.02 0.02 0.03 0.03 0.02 0.02 0.02 0.03 0.03 0.03
0.01 0.02 0.03 0.02 0.02 0.01 0.00 0.00 0.00 0.01 0.00 0.01 0.01 0.01 0.01 0.01 0.01 0.01 0.01 0.01 0.01 0.01 0.01 0.01 0.01 0.01 0.01 0.01 0.01 0.01 0.01 0.01 0.01 0.02 0.01 0.01 0.02 0.02 0.02 0.03 0.03 0.03 0.03 0.03
0.01 0.02 0.03 0.02 0.02 0.01 0.00 0.00 0.00 0.00 0.00 0.00 0.00 0.01 0.01 0.01 0.01 0.01 0.01 0.01 0.01 0.01 0.01 0.01 0.01 0.01 0.01 0.01 0.01 0.01 0.01 0.01 0.01 0.01 0.01 0.01 0.01 0.02 0.02 0.02 0.02 0.03 0.03 0.03
0.01 0.02 0.02 0.02 0.02 0.01 0.00 0.00 0.00 0.00 0.00 0.00 0.00 0.01 0.01 0.01 0.01 0.01 0.01 0.01 0.01 0.01 0.01 0.01 0.01 0.01 0.01 0.01 0.01 0.01 0.01 0.01 0.01 0.01 0.01 0.01 0.01 0.01 0.02 0.02 0.02 0.02 0.02 0.02
0.01 0.01 0.01 0.01 0.02 0.01 0.00 0.00 0.00 0.00 0.00 0.00 0.00 0.01 0.01 0.01 0.01 0.01 0.01 0.01 0.01 0.01 0.01 0.01 0.01 0.01 0.01 0.01 0.01 0.01 0.01 0.01 0.01 0.01 0.01 0.01 0.02 0.01 0.01 0.02 0.02 0.02 0.02 0.02
0.01 0.01 0.01 0.01 0.01 0.01 0.01 0.01 0.01 0.01 0.00 0.00 0.01 0.01 0.01 0.01 0.01 0.01 0.01 0.01 0.01 0.01 0.01 0.01 0.01 0.01 0.01 0.01 0.01 0.01 0.01 0.01 0.01 0.01 0.01 0.01 0.02 0.02 0.02 0.02 0.02 0.01 0.01 0.01
0.01 0.01 0.01 0.01 0.01 0.01 0.01 0.01 0.01 0.00 0.00 0.00 0.00 0.01 0.01 0.01 0.01 0.01 0.01 0.01 0.01 0.01 0.01 0.01 0.01 0.01 0.01 0.01 0.01 0.01 0.01 0.01 0.01 0.01 0.01 0.01 0.02 0.02 0.02 0.02 0.02 0.01 0.01 0.01
0.01 0.01 0.01 0.01 0.01 0.01 0.01 0.00 0.00 0.00 0.00 0.00 0.00 0.00 0.00 0.00 0.00 0.01 0.01 0.01 0.01 0.01 0.01 0.01 0.01 0.01 0.01 0.01 0.01 0.01 0.01 0.01 0.01 0.01 0.01 0.01 0.01 0.02 0.02 0.02 0.03 0.03 0.02 0.02
0.01 0.01 0.01 0.01 0.01 0.01 0.00 0.00 0.00 0.00 0.00 0.00 0.00 0.00 0.00 0.00 0.01 0.01 0.01 0.01 0.01 0.01 0.01 0.01 0.01 0.01 0.01 0.01 0.01 0.01 0.01 0.01 0.01 0.01 0.01 0.01 0.01 0.01 0.02 0.02 0.02 0.02 0.02 0.01
MSLP
1009.58 1008.39 1007.33 1006.48 1005.89 1005.58 1005.51 1005.64 1005.85 1006.07 1006.19 1006.16 1005.96 1005.57 1005.06 1004.48 1003.90 1003.40 1003.03 1002.82 1002.77 1002.86 1003.08 1003.37 1003.70 1004.05 1004.40 1004.77 1005.14 1005.56 1006.01 1006.51 1007.05 1007.62 1008.20 1008.77 1009.30 1009.79 1010.24 1010.66 1011.06 1011.49 1011.95 1012.47
1009.56 1008.29 1007.14 1006.19 1005.50 1005.09 1004.94 1005.00 1005.18 1005.38 1005.52 1005.52 1005.35 1005.01 1004.52 1003.95 1003.37 1002.83 1002.39 1002.10 1001.95 1001.94 1002.07 1002.29 1002.58 1002.92 1003.30 1003.72 1004.18 1004.68 1005.22 1005.80 1006.42 1007.04 1007.66 1008.25 1008.80 1009.31 1009.77 1010.20 1010.61 1011.04 1011.49 1012.00
1009.94 1008.62 1007.39 1006.31 1005.46 1004.86 1004.52 1004.39 1004.42 1004.52 1004.61 1004.62 1004.51 1004.27 1003.91 1003.45 1002.96 1002.48 1002.04 1001.69 1001.45 1001.31 1001.29 1001.37 1001.54 1001.81 1002.17 1002.61 1003.13 1003.73 1004.37 1005.06 1005.76 1006.45 1007.10 1007.72 1008.28 1008.78 1009.25 1009.68 1010.10 1010.53 1010.99 1011.49
1010.74 1009.40 1008.07 1006.82 1005.73 1004.85 1004.21 1003.79 1003.57 1003.48 1003.47 1003.48 1003.46 1003.38 1003.23 1003.00 1002.71 1002.38 1002.02 1001.67 1001.34 1001.05 1000.84 1000.72 1000.71 1000.84 1001.11 1001.53 1002.08 1002.74 1003.49 1004.27 1005.06 1005.81 1006.51 1007.13 1007.69 1008.18 1008.62 1009.05 1009.48 1009.92 1010.40 1010.92
1011.88 1010.52 1009.07 1007.63 1006.26 1005.04 1004.01 1003.23 1002.68 1002.34 1002.20 1002.19 1002.28 1002.42 1002.55 1002.64 1002.65 1002.56 1002.35 1002.05 1001.66 1001.22 1000.79 1000.42 1000.17 1000.09 1000.21 1000.54 1001.07 1001.77 1002.58 1003.44 1004.30 1005.11 1005.83 1006.46 1006.99 1007.45 1007.87 1008.28 1008.71 1009.17 1009.67 1010.23
1013.21 1011.82 1010.27 1008.62 1006.96 1005.38 1003.97 1002.78 1001.89 1001.29 1001.00 1000.98 1001.19 1001.56 1002.02 1002.47 1002.84 1003.05 1003.05 1002.84 1002.41 1001.83 1001.17 1000.52 999.98 999.63 999.54 999.72 1000.17 1000.85 1001.68 1002.59 1003.50 1004.33 1005.07 1005.68 1006.17 1006.59 1006.97 1007.35 1007.77 1008.25 1008.79 1009.41
1014.55 1013.15 1011.51 1009.69 1007.79 1005.90 1004.14 1002.62 1001.41 1000.58 1000.15 1000.12 1000.45 1001.05 1001.83 1002.64 1003.37 1003.89 1004.11 1004.00 1003.57 1002.85 1001.96 1001.02 1000.16 999.51 999.15 999.12 999.43 1000.02 1000.83 1001.73 1002.65 1003.49 1004.21 1004.79 1005.24 1005.61 1005.93 1006.28 1006.69 1007.18 1007.78 1008.46
1015.73 1014.34 1012.66 1010.76 1008.72 1006.65 1004.67 1002.91 1001.48 1000.48 999.96 999.93 1000.36 1001.15 1002.19 1003.30 1004.33 1005.11 1005.53 1005.51 1005.05 1004.21 1003.10 1001.87 1000.69 999.71 999.05 998.78 998.89 999.35 1000.06 1000.91 1001.79 1002.60 1003.29 1003.82 1004.22 1004.53 1004.81 1005.12 1005.51 1006.02 1006.65 1007.41
1016.62 1015.29 1013.66 1011.80 1009.77 1007.69 1005.66 1003.83 1002.32 1001.25 1000.69 1000.66 1001.15 1002.05 1003.25 1004.56 1005.78 1006.73 1007.26 1007.28 1006.78 1005.81 1004.49 1003.00 1001.51 1000.22 999.26 998.71 998.58 998.85 999.43 1000.18 1000.98 1001.73 1002.36 1002.84 1003.18 1003.43 1003.66 1003.93 1004.31 1004.82 1005.49 1006.30
1017.16 1015.95 1014.49 1012.82 1010.99 1009.08 1007.20 1005.48 1004.05 1003.02 1002.47 1002.45 1002.94 1003.86 1005.09 1006.44 1007.70 1008.69 1009.23 1009.23 1008.66 1007.57 1006.06 1004.34 1002.59 1001.01 999.75 998.92 998.54 998.59 998.99 999.59 1000.28 1000.94 1001.49 1001.91 1002.20 1002.41 1002.59 1002.83 1003.19 1003.70 1004.38 1005.23
1017.38 1016.38 1015.20 1013.86 1012.39 1010.85 1009.32 1007.89 1006.67 1005.78 1005.29 1005.27 1005.69 1006.52 1007.64 1008.87 1010.02 1010.90 1011.35 1011.26 1010.58 1009.37 1007.72 1005.81 1003.85 1002.03 1000.52 999.43 998.80 998.61 998.79 999.22 999.76 1000.31 1000.78 1001.14 1001.38 1001.55 1001.71 1001.92 1002.25 1002.74 1003.42 1004.28
1017.40 1016.67 1015.86 1014.96 1013.98 1012.95 1011.89 1010.87 1009.98 1009.29 1008.90 1008.85 1009.16 1009.79 1010.67 1011.65 1012.55 1013.22 1013.48 1013.24 1012.44 1011.12 1009.36 1007.34 1005.23 1003.24 1001.53 1000.21 999.35 998.92 998.89 999.11 999.49 999.92 1000.30 1000.60 1000.81 1000.95 1001.09 1001.28 1001.59 1002.06 1002.72 1003.56
1017.41 1016.98 1016.57 1016.16 1015.73 1015.25 1014.73 1014.19 1013.66 1013.21 1012.91 1012.81 1012.96 1013.33 1013.88 1014.51 1015.08 1015.45 1015.48 1015.06 1014.14 1012.74 1010.94 1008.87 1006.70 1004.61 1002.76 1001.26 1000.19 999.54 999.28 999.31 999.52 999.81 1000.11 1000.35 1000.53 1000.66 1000.80 1000.99 1001.28 1001.73 1002.35 1003.15
1017.57 1017.44 1017.42 1017.48 1017.57 1017.63 1017.63 1017.53 1017.35 1017.12 1016.90 1016.74 1016.69 1016.76 1016.95 1017.19 1017.39 1017.44 1017.21 1016.62 1015.62 1014.19 1012.40 1010.35 1008.19 1006.07 1004.14 1002.52 1001.28 1000.43 999.96 999.80 999.84 1000.01 1000.21 1000.41 1000.58 1000.73 1000.87 1001.07 1001.36 1001.79 1002.37 1003.11
1018.07 1018.19 1018.48 1018.92 1019.42 1019.92 1020.33 1020.60 1020.71 1020.65 1020.48 1020.23 1019.98 1019.76 1019.60 1019.46 1019.31 1019.06 1018.61 1017.89 1016.83 1015.43 1013.71 1011.74 1009.65 1007.57 1005.62 1003.93 1002.55 1001.54 1000.89 1000.55 1000.44 1000.48 1000.62 1000.79 1000.96 1001.13 1001.31 1001.53 1001.83 1002.25 1002.79 1003.48
1019.03 1019.30 1019.79 1020.46 1021.22 1022.00 1022.68 1023.19 1023.47 1023.52 1023.35 1023.02 1022.58 1022.11 1021.64 1021.20 1020.75 1020.25 1019.63 1018.83 1017.77 1016.44 1014.83 1013.00 1011.03 1009.03 1007.12 1005.39 1003.94 1002.80 1002.00 1001.50 1001.26 1001.21 1001.28 1001.44 1001.62 1001.83 1002.06 1002.33 1002.65 1003.07 1003.59 1004.24
1020.48 1020.81 1021.35 1022.08 1022.93 1023.79 1024.58 1025.18 1025.53 1025.61 1025.41 1024.99 1024.41 1023.75 1023.05 1022.37 1021.71 1021.05 1020.33 1019.49 1018.47 1017.24 1015.77 1014.10 1012.28 1010.40 1008.55 1006.83 1005.34 1004.11 1003.21 1002.59 1002.25 1002.12 1002.16 1002.31 1002.53 1002.79 1003.08 1003.40 1003.77 1004.20 1004.71 1005.32
1022.40 1022.66 1023.12 1023.75 1024.50 1025.29 1026.02 1026.58 1026.90 1026.94 1026.70 1026.21 1025.53 1024.74 1023.91 1023.09 1022.30 1021.54 1020.77 1019.94 1018.98 1017.86 1016.54 1015.02 1013.36 1011.60 1009.85 1008.17 1006.68 1005.41 1004.44 1003.75 1003.34 1003.17 1003.19 1003.36 1003.61 1003.93 1004.28 1004.67 1005.08 1005.54 1006.06 1006.66
1024.63 1024.74 1025.00 1025.42 1025.95 1026.53 1027.08 1027.50 1027.72 1027.68 1027.39 1026.86 1026.14 1025.30 1024.41 1023.52 1022.67 1021.87 1021.08 1020.27 1019.38 1018.35 1017.15 1015.78 1014.26 1012.63 1010.98 1009.37 1007.91 1006.65 1005.65 1004.94 1004.50 1004.32 1004.34 1004.53 1004.82 1005.20 1005.61 1006.05 1006.51 1007.01 1007.54 1008.13
1026.96 1026.87 1026.89 1027.02 1027.26 1027.57 1027.88 1028.11 1028.19 1028.07 1027.73 1027.19 1026.47 1025.64 1024.74 1023.85 1022.99 1022.17 1021.38 1020.58 1019.73 1018.77 1017.67 1016.41 1015.01 1013.50 1011.96 1010.44 1009.04 1007.83 1006.85 1006.15 1005.72 1005.54 1005.57 1005.79 1006.12 1006.54 1007.00 1007.49 1007.99 1008.50 1009.05 1009.63
1029.17 1028.87 1028.62 1028.46 1028.41 1028.43 1028.50 1028.54 1028.49 1028.30 1027.94 1027.41 1026.73 1025.94 1025.09 1024.22 1023.36 1022.54 1021.75 1020.95 1020.11 1019.18 1018.14 1016.96 1015.66 1014.27 1012.83 1011.43 1010.12 1008.97 1008.06 1007.39 1006.99 1006.83 1006.89 1007.13 1007.48 1007.93 1008.41 1008.92 1009.44 1009.97 1010.52 1011.10
1031.01 1030.55 1030.08 1029.67 1029.36 1029.14 1029.00 1028.89 1028.74 1028.51 1028.16 1027.67 1027.06 1026.33 1025.54 1024.70 1023.86 1023.04 1022.23 1021.41 1020.56 1019.64 1018.63 1017.52 1016.30 1015.01 1013.69 1012.40 1011.21 1010.16 1009.32 1008.71 1008.35 1008.22 1008.29 1008.53 1008.90 1009.34 1009.83 1010.34 1010.86 1011.38 1011.92 1012.49
1032.35 1031.76 1031.14 1030.57 1030.07 1029.69 1029.41 1029.20 1028.99 1028.76 1028.44 1028.02 1027.48 1026.84 1026.10 1025.31 1024.49 1023.66 1022.83 1021.98 1021.11 1020.20 1019.21 1018.15 1017.01 1015.83 1014.63 1013.46 1012.38 1011.44 1010.69 1010.15 1009.82 1009.71 1009.79 1010.02 1010.36 1010.78 1011.24 1011.73 1012.23 1012.73 1013.26 1013.81
1033.10 1032.47 1031.78 1031.12 1030.54 1030.07 1029.73 1029.47 1029.26 1029.05 1028.79 1028.44 1027.99 1027.42 1026.75 1026.00 1025.21 1024.38 1023.53 1022.67 1021.79 1020.88 1019.92 1018.92 1017.87 1016.79 1015.71 1014.67 1013.71 1012.87 1012.20 1011.72 1011.42 1011.31 1011.37 1011.57 1011.87 1012.24 1012.66 1013.10 1013.57 1014.05 1014.55 1015.08
1033.30 1032.69 1032.01 1031.35 1030.76 1030.29 1029.95 1029.71 1029.53 1029.37 1029.17 1028.89 1028.51 1028.02 1027.42 1026.72 1025.96 1025.15 1024.31 1023.46 1022.60 1021.71 1020.81 1019.88 1018.92 1017.95 1016.99 1016.06 1015.21 1014.47 1013.86 1013.41 1013.13 1013.01 1013.03 1013.17 1013.42 1013.73 1014.09 1014.49 1014.92 1015.36 1015.84 1016.35
1033.09 1032.54 1031.94 1031.34 1030.82 1030.40 1030.11 1029.91 1029.79 1029.68 1029.54 1029.33 1029.02 1028.60 1028.06 1027.42 1026.71 1025.95 1025.16 1024.35 1023.53 1022.71 1021.88 1021.03 1020.17 1019.31 1018.46 1017.64 1016.88 1016.20 1015.64 1015.21 1014.92 1014.76 1014.73 1014.82 1015.00 1015.25 1015.56 1015.91 1016.30 1016.72 1017.17 1017.66
Thickness
5511 5504 5503 5508 5510 5514 5508 5506 5505 5509 5510 5505 5503 5509 5514 5512 5511 5512 5512 5514 5517 5522 5525 5527 5530 5531 5533 5534 5537 5539 5540 5541 5543 5543 5543 5543 5542 5542 5543 5545 5546 5549 5550 5552
5491 5492 5499 5500 5499 5498 5496 5493 5492 5495 5497 5493 5489 5495 5502 5501 5503 5504 5505 5505 5506 5508 5511 5515 5518 5520 5522 5524 5525 5527 5529 5530 5533 5533 5534 5534 5533 5531 5532 5533 5535 5537 5539 5541
5478 5483 5488 5488 5484 5485 5483 5481 5482 5481 5480 5478 5477 5485 5493 5495 5493 5495 5495 5495 5496 5499 5500 5503 5506 5508 5510 5512 5515 5518 5517 5519 5520 5521 5522 5521 5520 5519 5519 5521 5523 5525 5527 5530
5462 5469 5472 5472 5471 5470 5473 5474 5472 5468 5461 5456 5462 5463 5482 5481 5482 5486 5485 5484 5485 5488 5490 5492 5495 5497 5499 5501 5503 5504 5506 5507 5508 5509 5510 5511 5511 5509 5509 5509 5511 5513 5515 5517
5448 5453 5453 5455 5458 5456 5455 5456 5454 5452 5444 5438 5439 5441 5465 5465 5472 5476 5476 5475 5476 5477 5480 5482 5485 5486 5488 5489 5491 5492 5494 5494 5495 5497 5499 5500 5499 5498 5496 5497 5498 5500 5502 5504
5433 5436 5437 5439 5442 5444 5440 5438 5435 5428 5426 5428 5434 5431 5450 5449 5461 5466 5467 5466 5465 5466 5469 5471 5473 5474 5475 5477 5479 5480 5481 5482 5483 5485 5486 5487 5486 5485 5484 5485 5486 5487 5488 5491
5418 5421 5421 5424 5427 5429 5426 5424 5419 5417 5410 5420 5422 5423 5436 5444 5448 5451 5453 5453 5454 5455 5457 5459 5460 5462 5464 5465 5467 5468 5469 5470 5471 5472 5473 5473 5474 5474 5474 5475 5474 5475 5476 5478
5397 5403 5408 5409 5410 5408 5408 5413 5411 5409 5406 5409 5404 5412 5429 5431 5432 5435 5437 5438 5440 5442 5444 5447 5449 5451 5453 5454 5455 5456 5458 5458 5459 5460 5460 5461 5462 5462 5462 5463 5464 5464 5465 5468
5382 5389 5396 5398 5399 5399 5396 5394 5397 5391 5380 5383 5394 5397 5412 5419 5419 5420 5421 5423 5425 5428 5431 5433 5437 5439 5441 5442 5443 5445 5445 5446 5447 5448 5448 5448 5449 5450 5451 5451 5452 5452 5454 5456
5373 5371 5380 5383 5388 5385 5383 5378 5374 5380 5384 5387 5390 5388 5404 5408 5407 5408 5408 5408 5411 5414 5416 5419 5422 5426 5428 5430 5431 5432 5433 5434 5436 5436 5436 5437 5438 5438 5439 5440 5440 5441 5442 5444
5363 5360 5363 5367 5364 5367 5366 5363 5360 5358 5363 5373 5376 5392 5396 5393 5395 5395 5396 5397 5397 5400 5402 5405 5408 5411 5413 5415 5417 5418 5420 5421 5423 5424 5425 5425 5426 5427 5427 5428 5428 5429 5430 5432
5351 5346 5345 5352 5355 5356 5353 5350 5347 5352 5348 5345 5357 5375 5384 5378 5380 5381 5382 5384 5384 5386 5388 5390 5392 5396 5399 5401 5403 5405 5407 5409 5410 5411 5412 5413 5414 5414 5415 5416 5417 5417 5419 5420
5343 5337 5336 5345 5344 5340 5339 5336 5334 5335 5333 5330 5343 5365 5369 5364 5365 5365 5367 5367 5370 5373 5374 5375 5378 5380 5383 5386 5389 5391 5394 5396 5398 5398 5399 5401 5402 5403 5404 5405 5406 5406 5407 5408
5342 5329 5331 5337 5340 5332 5329 5330 5324 5324 5325 5326 5332 5350 5358 5358 5356 5355 5354 5354 5356 5358 5360 5362 5364 5365 5368 5371 5374 5377 5380 5382 5384 5385 5387 5388 5390 5391 5392 5393 5394 5395 5396 5396
5330 5321 5317 5321 5325 5321 5321 5324 5319 5317 5321 5324 5334 5336 5347 5346 5343 5342 5342 5342 5344 5346 5348 5350 5351 5352 5354 5357 5360 5363 5366 5368 5371 5372 5374 5376 5377 5378 5380 5381 5382 5383 5384 5384
5314 5310 5307 5311 5316 5312 5316 5319 5316 5315 5315 5313 5320 5328 5333 5329 5328 5329 5331 5333 5334 5335 5337 5338 5339 5340 5341 5344 5347 5350 5353 5355 5357 5359 5361 5363 5364 5365 5367 5368 5369 5370 5371 5372
5302 5300 5299 5302 5298 5304 5306 5308 5309 5305 5302 5304 5312 5324 5321 5318 5320 5319 5321 5322 5323 5324 5325 5326 5327 5329 5331 5333 5336 5338 5341 5343 5345 5347 5348 5350 5352 5353 5355 5356 5357 5357 5358 5359
5296 5293 5290 5288 5287 5290 5310 5300 5301 5301 5299 5295 5301 5307 5307 5306 5305 5305 5307 5308 5310 5312 5313 5315 5316 5318 5320 5322 5325 5327 5330 5331 5333 5335 5336 5338 5339 5341 5342 5343 5344 5344 5345 5346
5293 5290 5283 5277 5273 5282 5297 5294 5285 5288 5292 5290 5290 5294 5293 5292 5295 5298 5299 5299 5300 5301 5302 5304 5306 5308 5310 5312 5314 5316 5318 5319 5321 5323 5324 5326 5327 5328 5330 5330 5331 5331 5332 5333
5280 5279 5275 5267 5272 5276 5293 5284 5276 5281 5286 5285 5281 5282 5282 5284 5288 5294 5292 5290 5291 5292 5293 5294 5296 5297 5299 5301 5302 5304 5306 5307 5309 5311 5312 5313 5315 5316 5317 5318 5318 5318 5319 5320
5271 5265 5264 5262 5261 5270 5272 5268 5272 5279 5284 5275 5272 5273 5271 5270 5276 5279 5279 5279 5280 5281 5282 5283 5285 5287 5288 5289 5291 5293 5295 5296 5297 5298 5300 5301 5302 5304 5305 5305 5305 5305 5306 5306
5263 5260 5254 5252 5254 5268 5262 5259 5263 5264 5262 5261 5262 5262 5261 5262 5265 5266 5268 5269 5270 5270 5272 5273 5274 5276 5278 5279 5280 5282 5283 5284 5284 5286 5287 5288 5290 5291 5292 5292 5292 5293 5293 5293
5251 5253 5253 5254 5262 5257 5249 5251 5251 5250 5250 5251 5251 5252 5251 5252 5254 5256 5256 5257 5258 5260 5261 5262 5263 5265 5266 5266 5267 5269 5270 5271 5273 5274 5275 5276 5278 5279 5279 5280 5280 5280 5281 5281
5242 5236 5239 5240 5246 5246 5243 5242 5242 5241 5241 5242 5242 5241 5242 5242 5243 5244 5245 5247 5248 5250 5250 5251 5252 5253 5254 5255 5256 5257 5258 5260 5261 5262 5263 5264 5265 5266 5267 5268 5269 5269 5270 5270
5238 5228 5230 5233 5236 5236 5241 5239 5238 5237 5236 5235 5235 5234 5234 5234 5234 5234 5235 5237 5238 5241 5240 5240 5241 5242 5243 5244 5245 5246 5247 5249 5249 5250 5251 5252 5253 5254 5255 5256 5257 5258 5259 5260
5228 5225 5227 5238 5235 5230 5234 5234 5232 5231 5231 5230 5228 5228 5228 5227 5226 5227 5227 5228 5228 5229 5230 5230 5231 5232 5233 5234 5235 5236 5237 5238 5238 5239 5240 5241 5241 5242 5243 5244 5244 5246 5247 5248